Regional Weather Roundup
Issued by NWS

Home | Current Version | Previous Version | Text Only | Print | Product List | Glossary On
Versions: 1 2 3 4 5 6 7 8 9 10 11 12 13 14 15 16 17 18 19 20 21 22 23 24 25 26 27 28 29 30 31 32 33 34 35 36 37 38 39 40 41 42 43 44 45 46 47 48 49 50
000
ASUS43 KMPX 260201
RWRMN
WEATHER ROUNDUP FOR MINNESOTA
NATIONAL WEATHER SERVICE TWIN CITIES/CHANHASSEN MN
900 PM CDT SAT OCT 25 2014


NOTE: "FAIR" INDICATES FEW OR NO CLOUDS BELOW 12,000 FEET WITH NO
SIGNIFICANT WEATHER AND/OR OBSTRUCTIONS TO VISIBILITY. N/A MEANS
CURRENT SKY AND/OR WEATHER CONDITIONS ARE NOT AVAILABLE.

MNZ060>063-068>070-260300-
   Twin Cities Metro

CITY           SKY/WX    TMP DP  RH WIND       PRES   REMARKS
TWIN CITIES    CLEAR     51  26  37 W6        30.05S
ST PAUL        CLEAR     49  27  42 NW5       30.05S
CRYSTAL        CLEAR     51  25  36 W6        30.04S
BLAINE         CLEAR     48  28  46 W6        30.04S
LAKEVILLE      CLEAR     46  27  46 W6        30.05S
EDEN PRAIRIE   CLEAR     52  27  38 NW6       30.04S
SOUTH ST PAUL  CLEAR     53  25  33 CALM      30.04S
LAKE ELMO      FAIR      46  28  49 NW6       30.05R
$$
MNZ001>005-007-008-013>017-022>024-027-028-260300-
   Northwest Minnesota

CITY           SKY/WX    TMP DP  RH WIND       PRES   REMARKS
BEMIDJI        CLEAR     43  25  49 SW6       30.01S
HALLOCK        PTCLDY    41  21  45 CALM      29.99S
ROSEAU         CLEAR     46  27  46 W6        29.98S
WARROAD        CLEAR     45  28  53 W6        29.98S
THIEF RVR FALL CLEAR     43  25  49 W3        30.01S
CROOKSTON      CLEAR     41  23  48 W5        30.02S
FOSSTON        CLEAR     36  21  55 SW3       30.02F
DETROIT LAKES  CLEAR     45  28  53 CALM      30.04F
MOORHEAD       CLEAR     45  23  42 CALM      30.04F
PARK RAPIDS    CLEAR     41  23  48 W5        30.02F
MAHNOMEN       FAIR      42  24  49 W5        30.02F
$$
MNZ006-009>011-018-025>026-260300-
   North Central Minnesota

CITY           SKY/WX    TMP DP  RH WIND       PRES   REMARKS
BAUDETTE       CLEAR     41  26  55 CALM      29.96F
FLAG ISLAND    CLEAR     46  28  49 W9        29.94S
INTL FALLS     CLEAR     41  28  60 W3        29.95S
WASKISH        CLEAR     48  37  66 CALM      29.98S
BIG FORK       CLEAR     41  25  52 CALM      29.98F
LONGVILLE      CLEAR     36  28  75 CALM      30.01F
GRAND RAPIDS   CLEAR     48  25  40 W7        29.99F
CRANE LAKE     CLEAR     45  27  49 W3        29.96S
ORR            CLEAR     45  25  45 W6        29.94S
COOK           CLEAR     39  27  60 W3        29.96F
WALKER         FAIR      46  25  44 CALM      30.01F
$$
MNZ012-019>021-037-260300-
   Northeast Minnesota

CITY           SKY/WX    TMP DP  RH WIND       PRES   REMARKS
DULUTH         CLEAR     48  25  40 NW13G20   29.96S
ELY            CLEAR     45  25  45 W6        29.94S
HIBBING        CLEAR     46  25  43 W7        29.97F
EVELETH        CLEAR     45  27  49 W6        29.98S
DULUTH HARBOR  CLEAR     54  30  40 W10       29.99S
TWO HARBORS    CLEAR     48  12  23 W6        29.94S
SILVER BAY     CLEAR     46  27  46 W3        29.92S
GRAND MARAIS     N/A     50  29  44 MISG      29.86R
G MARAIS ARPRT CLEAR     43  27  52 W13G23    29.86S
$$
MNZ029>031-032-039>041-046>048-054>057-064-260300-
   West Central Minnesota

CITY           SKY/WX    TMP DP  RH WIND       PRES   REMARKS
FERGUS FALLS   CLEAR     46  21  36 CALM      30.06S
WHEATON        CLEAR     39  27  60 CALM      30.08S
MORRIS         CLEAR     46  27  46 CALM      30.05F
ALEXANDRIA     CLEAR     48  26  42 W3        30.07S
ELBOW LAKE     FAIR      45  32  61 CALM      30.06S
WADENA         CLEAR     41  27  56 SW3       30.04S
GLENWOOD       CLEAR     45  27  49 W3        30.07S
APPLETON       CLEAR     45  36  70 CALM      30.06S
BENSON         CLEAR     43  30  61 CALM      30.06F
ORTONVILLE     CLEAR     46  32  57 CALM      30.06
MADISON        CLEAR     50  30  46 CALM      30.06F
WILLMAR        FAIR      46  27  46 CALM      30.07F
$$
MNZ033>034-036-042>043-049>051-058-059-260300-
   Central Minnesota

CITY           SKY/WX    TMP DP  RH WIND       PRES   REMARKS
ST CLOUD       CLEAR     47  27  45 SW5       30.05S
SAUK CENTRE    FAIR      39  28  66 CALM      30.06S
PAYNESVILLE    CLEAR     34  27  75 CALM      30.06F
AITKIN         CLEAR     45  25  45 CALM      30.00F
PINE RIVER     CLEAR     37  28  70 CALM      30.05F
BRAINERD       CLEAR     43  27  53 W3        30.03S
STAPLES        CLEAR     41  27  56 CALM      30.04S
LONG PRAIRIE   FAIR      39  28  65 SW5       30.06R
LITTLE FALLS   CLEAR     36  30  80 CALM      30.05S
LITCHFIELD     CLEAR     45  34  65 CALM      30.06F
BUFFALO        CLEAR     47  32  55 W5        30.06S
MAPLE LAKE     CLEAR     42  32  65 W3        30.06F
$$
MNZ037-044-045-052-053-260300-
   East Central Minnesota

CITY           SKY/WX    TMP DP  RH WIND       PRES   REMARKS
PRINCETON      CLEAR     43  28  56 W3        30.04S
MORA           CLEAR     45  27  49 W5        30.04S
CAMBRIDGE      CLEAR     50  32  50 W3        30.02S
RUSH CITY      PTCLDY    43  28  54 W5        30.03S
MOOSE LAKE     CLEAR     46  27  46 NW3       29.99S
HINCKLEY       FAIR      46  28  49 W3        30.01S
CLOQUET        CLEAR     46  25  42 W7        29.98S
MCGREGOR       CLEAR     48  27  43 W5        30.01F
$$
MNZ071>073-080-081-089-090-097-098-260300-
   Southwest Minnesota

CITY           SKY/WX    TMP DP  RH WIND       PRES   REMARKS
MONTEVIDEO     CLEAR     46  28  49 CALM      30.07F
GRANITE FALLS  CLEAR     39  32  75 CALM      30.08F
CANBY          CLEAR     40  32  72 CALM      30.07F
MARSHALL       CLEAR     45  28  53 SW3       30.06F
REDWOOD FALLS  CLEAR     52  29  41 CALM      30.07S
OLIVIA         CLEAR     45  32  61 CALM      30.06S
PIPESTONE      CLEAR     52  30  43 E3        30.07S
WINDOM         CLEAR     45  34  65 CALM      30.08F
WORTHINGTON    CLEAR     46  30  53 CALM      30.09S
JACKSON        CLEAR     45  32  61 CALM      30.08F
TRACY          CLEAR     46  32  57 CALM      30.08S
SLAYTON        CLEAR     45  30  55 CALM      30.09S
$$
MNZ065>067-074>077-082>085-091>093-260300-
   South Central Minnesota

CITY           SKY/WX    TMP DP  RH WIND       PRES   REMARKS
MANKATO        CLEAR     52  27  37 NW3       30.07S
NEW ULM        CLEAR     45  30  57 CALM      30.07S
ST JAMES       CLEAR     43  30  61 CALM      30.08F
FAIRMONT       CLEAR     52  21  30 N5        30.08S
GLENCOE        CLEAR     48  29  47 W5        30.06S
FARIBAULT      CLEAR     46  27  46 W3        30.06S
OWATONNA       CLEAR     41  30  65 W3        30.07R
WASECA         CLEAR     43  25  49 NW5       30.08S
ALBERT LEA     CLEAR     48  30  49 NW3       30.06S
$$
MNZ078>079-086>088-094>096-260300-
   Southeast Minnesota

CITY           SKY/WX    TMP DP  RH WIND       PRES   REMARKS
ROCHESTER      CLEAR     46  28  49 W7        30.06S
RED WING         N/A     43  28  56 CALM      30.03R
STANTON        CLEAR     48  27  43 CALM      30.04R
DODGE CENTER   CLEAR     50  28  43 W7        30.06R
WINONA         CLEAR     50  32  50 NW6       30.02S
AUSTIN         CLEAR     48  30  49 NW7       30.05F
PRESTON        CLEAR     47  31  52 NW5       30.04F
$$
ABBREVIATIONS USED IN REMARKS
   TC - TEMPERATURES IN CELSIUS
  WCI - WIND CHILL INDEX
   HX - HEAT INDEX
  VSB - VISIBILITY
$$



USA.gov is the U.S. government's official web portal to all federal, state and local government web resources and services.